Stations météo

Publicité
Cannes, France (7684): Température de l'air & dewpoint: 14.07.2018 12:00:00 - 20.07.2018 12:00:00 (CEST)Cannes, France (7684): Température de l'air 5cm: 14.07.2018 12:00:00 - 20.07.2018 12:00:00 (CEST)Cannes, France (7684): Vitesse du vent & gusts: 14.07.2018 12:00:00 - 20.07.2018 12:00:00 (CEST)Cannes, France (7684): Direction du vent: 14.07.2018 12:00:00 - 20.07.2018 12:00:00 (CEST)Cannes, France (7684): reduced air pressure: 14.07.2018 12:00:00 - 20.07.2018 12:00:00 (CEST)Cannes, France (7684): visibility: 14.07.2018 12:00:00 - 20.07.2018 12:00:00 (CEST)Cannes, France (7684): Quantités de précipitations: 14.07.2018 12:00:00 - 20.07.2018 12:00:00 (CEST)
Date & Time tt [°C] td [°C] tt 5cm [°C] ff [km/h] ff [knt] fx [km/h] fx [knt] dd ppp [hPa] vv [km] rr [mm]
20.07.2018 12:00:00 27,4 21,2 35,0 11 6 19 11 S 1014,2 35 0,0
20.07.2018 11:00:00 27,1 20,4 33,7 11 6 19 11 S 1014,1 20 0,0
20.07.2018 10:00:00 26,7 20,8 30,6 6 3 14 7 S 1013,9 20 0,0
20.07.2018 09:00:00 25,8 20,6 24,9 3 2 10 5 N 1013,8 19 0,0
20.07.2018 08:00:00 22,5 19,7 20,5 5 3 11 6 N 1013,7 17 0,0
20.07.2018 07:00:00 20,6 18,9 19,3 5 3 11 6 N 1013,7 13 0,0
20.07.2018 06:00:00 20,3 19,0 19,4 6 3 11 6 N 1013,6 12 0,0
20.07.2018 05:00:00 20,8 19,1 19,8 6 3 11 6 N 1013,5 14 0,0
20.07.2018 04:00:00 20,9 19,4 19,8 4 2 11 6 NNW 1013,6 14 0,0
20.07.2018 03:00:00 21,3 19,8 20,0 4 2 9 5 NNW 1013,6 14 0,0
20.07.2018 02:00:00 21,7 20,0 20,6 4 2 11 6 N 1014,0 17 0,0
20.07.2018 01:00:00 22,1 20,2 21,1 6 3 9 5 N 1014,1 17 0,0
20.07.2018 00:00:00 23,1 20,4 21,7 4 2 9 5 NNE 1013,9 21 0,0
19.07.2018 23:00:00 23,7 20,4 21,8 4 2 7 4 N 1013,8 24 0,0
19.07.2018 22:00:00 24,7 20,0 22,7 4 2 8 4 S 1013,6 42 0,0
19.07.2018 21:00:00 25,2 20,2 24,3 5 3 12 6 S 1013,4 43 0,0
19.07.2018 20:00:00 26,3 20,4 27,4 7 4 11 6 S 1013,6 50 0,0
19.07.2018 19:00:00 27,0 20,6 29,4 5 3 19 10 ESE 1013,6 19 0,0
19.07.2018 18:00:00 26,7 21,0 29,0 13 7 22 12 S 1013,8 20 0,0
19.07.2018 17:00:00 27,5 21,5 34,3 13 7 26 14 S 1013,7 24 0,0
19.07.2018 16:00:00 27,4 21,4 34,9 16 8 24 13 SSE 1013,9 23 0,0
19.07.2018 15:00:00 27,7 21,7 35,9 13 7 21 11 S 1014,1 20 0,0
19.07.2018 14:00:00 27,7 21,3 35,5 13 7 24 13 S 1014,3 19 0,0
19.07.2018 13:00:00 27,6 21,2 35,0 13 7 23 13 SSE 1014,5 20 0,0
19.07.2018 12:00:00 27,4 20,5 34,2 12 6 25 14 SSE 1014,3 19 0,0
19.07.2018 11:00:00 27,6 20,4 33,9 11 6 18 10 SSE 1014,1 19 0,0
19.07.2018 10:00:00 27,1 19,7 29,0 5 3 11 6 N 1014,1 31 0,0
19.07.2018 09:00:00 25,3 20,8 24,2 4 2 8 5 N 1014,1 19 0,0
19.07.2018 08:00:00 23,0 19,8 21,7 4 2 10 5 NNE 1013,8 19 0,0
19.07.2018 07:00:00 21,7 19,3 20,7 7 4 12 6 NNE 1013,7 20 0,0
19.07.2018 06:00:00 21,2 19,3 20,0 6 3 12 6 N 1013,4 19 0,0
19.07.2018 05:00:00 20,5 19,2 19,6 5 3 12 7 N 1013,0 19 0,0
19.07.2018 04:00:00 20,7 19,0 19,8 6 3 13 7 N 1012,8 22 0,0
19.07.2018 03:00:00 21,0 18,9 20,2 5 3 12 7 N 1013,0 26 0,0
19.07.2018 02:00:00 21,4 18,8 20,1 6 3 12 6 NNE 1013,3 30 0,0
19.07.2018 01:00:00 21,2 18,2 20,1 6 4 10 5 N 1013,8 33 0,0
19.07.2018 00:00:00 22,1 18,1 20,4 4 2 9 5 N 1014,5 40 0,0
18.07.2018 23:00:00 22,9 17,6 20,5 2 1 5 3 NNE 1014,2 48 0,0
18.07.2018 22:00:00 24,0 16,3 21,5 2 1 5 3 N 1013,8 59 0,0
18.07.2018 21:00:00 25,0 19,4 23,4 4 2 6 3 NW 1013,4 40 0,0
18.07.2018 20:00:00 26,3 20,6 28,2 3 2 15 8 S 1013,4 43 0,0
18.07.2018 19:00:00 26,6 21,1 30,9 11 6 19 11 S 1013,5 20 0,0
18.07.2018 18:00:00 27,2 21,5 33,2 13 7 21 11 S 1013,8 20 0,0
18.07.2018 17:00:00 27,3 22,3 33,5 13 7 22 12 S 1014,1 20 0,0
18.07.2018 16:00:00 27,6 22,1 34,7 13 7 21 12 S 1014,3 20 0,0
18.07.2018 15:00:00 27,4 22,1 34,9 14 7 22 12 S 1014,5 20 0,0
18.07.2018 14:00:00 27,3 21,8 35,4 14 7 25 13 SSE 1014,9 30 0,0
18.07.2018 13:00:00 27,7 20,8 35,7 13 7 20 11 S 1015,0 38 0,0
18.07.2018 12:00:00 28,0 20,8 35,5 12 6 18 10 SSE 1015,1 20 0,0
18.07.2018 11:00:00 28,1 20,6 34,1 9 5 16 9 S 1015,1 60 0,0
18.07.2018 10:00:00 26,9 19,8 30,7 3 2 9 5 NNE 1015,2 36 0,0
18.07.2018 09:00:00 24,1 15,8 22,0 5 3 13 7 N 1015,3 47 0,0
18.07.2018 08:00:00 20,2 13,6 17,8 8 5 19 11 NNE 1014,9 60 0,0
18.07.2018 07:00:00 17,9 12,1 16,1 9 5 17 9 N 1014,6 40 0,0
18.07.2018 06:00:00 17,3 11,8 16,1 8 4 18 10 N 1014,3 60 0,0
18.07.2018 05:00:00 17,7 11,9 16,0 8 4 12 6 N 1014,1 60 0,0
18.07.2018 04:00:00 18,1 12,3 16,5 6 3 16 8 N 1013,8 60 0,0
18.07.2018 03:00:00 18,8 12,8 16,9 8 4 12 6 N 1013,8 60 0,0
18.07.2018 02:00:00 19,3 13,5 17,2 4 2 12 6 N 1014,0 60 0,0
18.07.2018 01:00:00 19,9 14,5 18,1 6 3 12 7 N 1013,8 60 0,0
18.07.2018 00:00:00 20,4 15,4 18,5 6 4 11 6 N 1013,8 60 0,0
17.07.2018 23:00:00 21,4 16,8 19,0 4 2 10 6 N 1013,8 60 0,0
17.07.2018 22:00:00 22,8 16,1 20,1 5 3 10 5 NNE 1013,4 60 0,0
17.07.2018 21:00:00 24,7 17,9 21,8 3 2 8 4 NNW 1012,9 58 0,0
17.07.2018 20:00:00 27,3 17,8 28,6 7 4 13 7 SE 1012,5 20 0,0
17.07.2018 19:00:00 27,6 18,3 32,3 8 5 14 8 S 1012,4 53 0,0
17.07.2018 18:00:00 28,8 18,3 33,4 8 4 18 10 SSE 1012,4 20 0,0
17.07.2018 17:00:00 29,0 18,1 33,9 11 6 19 10 SE 1012,6 19 0,0
17.07.2018 16:00:00 29,1 17,6 36,2 11 6 18 10 SSE 1012,7 60 0,0
17.07.2018 15:00:00 29,6 14,2 36,0 8 4 16 9 SSE 1012,8 51 0,0
17.07.2018 14:00:00 29,1 13,3 35,8 10 5 16 9 SSE 1012,8 60 0,0
17.07.2018 13:00:00 28,0 14,6 35,7 10 5 14 8 SSE 1012,9 60 0,0
17.07.2018 12:00:00 27,5 16,1 34,3 7 4 12 6 S 1012,9 19 0,0
17.07.2018 11:00:00 26,4 16,0 31,9 6 3 11 6 SSE 1012,8 60 0,0
17.07.2018 10:00:00 24,7 15,9 28,9 0 0 9 5 N 1012,3 60 0,0
17.07.2018 09:00:00 21,5 16,2 20,8 4 2 13 7 N 1012,2 59 0,0
17.07.2018 08:00:00 18,4 15,5 16,1 8 4 15 8 N 1011,9 53 0,0
17.07.2018 07:00:00 16,0 14,5 14,7 6 3 12 6 N 1011,6 54 0,0
17.07.2018 06:00:00 15,5 14,4 14,6 7 4 16 9 N 1011,6 60 0,0
17.07.2018 05:00:00 15,5 14,7 14,7 8 4 14 8 N 1011,3 60 0,0
17.07.2018 04:00:00 15,7 14,9 14,9 6 4 10 6 N 1011,0 60 0,0
17.07.2018 03:00:00 16,1 15,1 15,3 6 3 15 8 N 1010,6 60 0,0
17.07.2018 02:00:00 16,2 15,2 15,4 9 5 14 8 N 1010,8 60 0,0
17.07.2018 01:00:00 16,7 15,7 15,6 7 4 13 7 N 1010,8 60 0,0
17.07.2018 00:00:00 16,9 15,8 15,9 5 3 12 7 NNW 1010,8 60 0,0
16.07.2018 23:00:00 17,4 16,4 16,2 7 4 12 7 NNW 1010,6 60 0,0
16.07.2018 22:00:00 17,4 16,3 16,8 6 3 13 7 NNW 1010,4 60 0,0
16.07.2018 21:00:00 18,0 16,7 17,1 2 1 14 8 SSE 1009,6 60 0,0
16.07.2018 20:00:00 18,5 17,0 18,1 5 3 16 9 NNW 1009,0 60 0,4
16.07.2018 19:00:00 18,1 16,8 17,0 9 5 16 9 NNE 1009,5 16 2,6
16.07.2018 18:00:00 17,5 16,4 17,1 11 6 27 14 NNE 1009,7 5 4,6
16.07.2018 17:00:00 17,5 16,2 16,6 7 4 70 38 E 1011,4 6 16,9
16.07.2018 16:00:00 25,9 21,1 25,5 9 5 29 15 ESE 1009,1 19 0,0
16.07.2018 15:00:00 26,5 21,5 27,0 11 6 27 14 E 1009,4 20 0,0
16.07.2018 14:00:00 26,9 21,4 25,1 15 8 34 19 E 1010,0 20 0,0
16.07.2018 13:00:00 26,4 21,2 25,0 6 4 25 13 E 1011,4 16 0,0
16.07.2018 12:00:00 26,6 20,9 27,2 10 5 22 12 E 1010,8 46 0,0
16.07.2018 11:00:00 25,8 21,2 25,9 10 5 24 13 NE 1011,0 31 0,0
16.07.2018 10:00:00 26,0 20,3 26,0 7 4 21 11 ENE 1010,9 34 0,0
16.07.2018 09:00:00 25,2 19,8 22,7 6 3 18 10 NNW 1011,4 20 0,0
16.07.2018 08:00:00 22,8 18,1 21,4 10 5 19 10 N 1011,5 19 0,0
16.07.2018 07:00:00 21,4 16,8 20,3 7 4 12 6 N 1012,3 33 0,0
16.07.2018 06:00:00 21,2 16,2 19,8 6 3 11 6 NNE 1012,0 38 0,0
16.07.2018 05:00:00 20,9 15,9 19,8 6 3 13 7 N 1011,9 42 0,0
16.07.2018 04:00:00 20,9 15,4 19,5 8 5 18 10 N 1012,7 50 0,0
16.07.2018 03:00:00 20,9 15,4 19,0 8 4 13 7 N 1013,3 55 0,0
16.07.2018 02:00:00 21,4 15,2 18,8 5 3 10 6 N 1012,8 60 0,0
16.07.2018 01:00:00 22,4 15,0 18,8 5 3 9 5 N 1012,0 60 0,0
16.07.2018 00:00:00 23,6 14,9 19,6 5 3 9 5 N 1012,0 59 0,0
15.07.2018 23:00:00 25,4 15,1 20,5 3 1 8 4 ENE 1012,0 56 0,0
15.07.2018 22:00:00 27,2 14,2 21,3 3 2 6 3 ENE 1011,9 20 0,0
15.07.2018 21:00:00 28,0 13,5 25,3 2 1 19 10 SW 1011,3 18 0,0
15.07.2018 20:00:00 30,6 12,9 31,5 13 7 24 13 S 1011,1 60 0,0
15.07.2018 19:00:00 32,1 12,8 35,4 17 9 31 17 SSW 1011,0 60 0,0
15.07.2018 18:00:00 33,5 11,9 38,1 19 10 31 17 S 1011,2 60 0,0
15.07.2018 17:00:00 33,3 14,8 37,9 11 6 25 13 SSE 1011,6 19 0,0
15.07.2018 16:00:00 32,3 18,9 37,2 16 9 27 14 S 1012,3 42 0,0
15.07.2018 15:00:00 30,7 20,3 36,2 15 8 29 16 SSE 1013,1 19 0,0
15.07.2018 14:00:00 28,6 20,3 36,2 15 8 27 15 SE 1013,7 19 0,0
15.07.2018 13:00:00 28,8 18,9 36,6 13 7 23 12 SSE 1014,1 19 0,0
15.07.2018 12:00:00 28,2 19,7 36,1 12 6 21 12 SSE 1014,1 19 0,0
15.07.2018 11:00:00 28,7 16,6 35,0 6 4 15 8 SSE 1014,3 19 0,0
15.07.2018 10:00:00 27,5 16,1 31,9 5 3 14 7 SSE 1014,5 20 0,0
15.07.2018 09:00:00 25,9 16,2 26,9 0 0 11 6 N 1014,5 40 0,0
15.07.2018 08:00:00 22,4 16,2 19,7 6 3 12 7 N 1014,8 60 0,0
15.07.2018 07:00:00 19,8 15,0 17,3 9 5 14 8 N 1014,4 43 0,0
15.07.2018 06:00:00 19,0 14,9 17,3 6 3 12 6 N 1014,3 43 0,0
15.07.2018 05:00:00 19,7 15,1 17,5 5 3 10 5 N 1014,0 44 0,0
15.07.2018 04:00:00 19,9 15,1 18,1 5 3 11 6 N 1014,1 45 0,0
15.07.2018 03:00:00 20,4 15,4 18,4 6 3 9 5 N 1014,3 49 0,0
15.07.2018 02:00:00 21,2 15,5 18,4 5 3 10 5 N 1014,8 50 0,0
15.07.2018 01:00:00 21,6 15,9 19,2 5 3 11 6 N 1015,1 50 0,0
15.07.2018 00:00:00 22,4 16,0 20,2 5 3 10 5 N 1014,9 55 0,0
14.07.2018 23:00:00 23,3 16,1 21,3 5 3 9 5 N 1014,9 56 0,0
14.07.2018 22:00:00 24,7 15,3 21,7 4 2 8 4 N 1014,7 35 0,0
14.07.2018 21:00:00 26,5 13,9 23,1 3 1 8 4 WSW 1013,9 60 0,0
14.07.2018 20:00:00 28,3 14,5 29,9 3 2 13 7 S 1013,9 60 0,0
14.07.2018 19:00:00 28,6 15,8 33,1 6 3 20 11 S 1014,6 59 0,0
14.07.2018 18:00:00 28,5 18,0 34,2 12 6 22 12 S 1014,8 20 0,0
14.07.2018 17:00:00 28,5 19,2 35,2 14 8 24 13 S 1015,2 20 0,0
14.07.2018 16:00:00 29,4 18,5 36,4 13 7 25 14 SSE 1015,3 48 0,0
14.07.2018 15:00:00 29,1 18,8 36,4 13 7 23 12 SSE 1015,7 56 0,0
14.07.2018 14:00:00 28,6 19,0 35,7 14 7 27 14 SSE 1016,1 60 0,0
14.07.2018 13:00:00 29,3 17,2 36,2 13 7 22 12 SE 1016,2 20 0,0
14.07.2018 12:00:00 28,5 15,1 29,0 5 3 17 9 E 1016,4 53 0,0

tt = Température de l'air
td = dewpoint
tt 5cm = Température de l'air 5cm
ff = Vitesse du vent
fx = gusts
dd = Direction du vent
ppp = reduced air pressure
vv = visibility
rr = Quantités de précipitations

stations d'obs. à proximité